﻿_id,日時,平均風速(m/s),平均風向,最大瞬間風速(m/s),最大風速時風向,気温(℃),湿度(%),10分間移動積算雨量(mm),1時間移動積算雨量(mm),日雨量(mm),累計雨量(mm),日射(日積算)(MJ/m2),日照(日積算)(min),現地気圧(hPa),海面気圧(hPa)
1,2020-04-13T00:00:00,4.2,北北西,9.2,北西,7.5,91.3,1.5,5.5,23.5,23.5,3.64,0,986.8,1000.8
2,2020-04-13T00:01:00,4,北北西,9.2,北西,7.5,91.2,1,5.5,0,23.5,0,0,986.8,1000.8
3,2020-04-13T00:02:00,3.8,北北西,9.2,北西,7.5,91.2,1,5.5,0,23.5,0,0,986.7,1000.7
4,2020-04-13T00:03:00,3.8,北,9.2,北西,7.5,91.3,1,5.5,0,23.5,0,0,986.6,1000.6
5,2020-04-13T00:04:00,3.9,北,10.3,北,7.5,91.4,1,5.5,0,23.5,0,0,986.6,1000.6
6,2020-04-13T00:05:00,4,北,10.3,北,7.5,91.5,0.5,5.5,0,23.5,0,0,986.5,1000.5
7,2020-04-13T00:06:00,3.8,北,10.3,北,7.5,91.5,1,5.5,0.5,24,0,0,986.5,1000.5
8,2020-04-13T00:07:00,3.8,北,10.3,北,7.5,91.3,1,5.5,0.5,24,0,0,986.5,1000.5
9,2020-04-13T00:08:00,3.9,北,10.3,北,7.6,91.5,1,5.5,0.5,24,0,0,986.4,1000.4
10,2020-04-13T00:09:00,4.1,北,10.3,北,7.6,91.6,0.5,5.5,0.5,24,0,0,986.4,1000.4
11,2020-04-13T00:10:00,4.3,北,10.3,北,7.5,91.4,0.5,5.5,0.5,24,0,0,986.3,1000.3
12,2020-04-13T00:11:00,4.4,北,10.3,北,7.5,91.2,1,6,1,24.5,0,0,986.2,1000.2
13,2020-04-13T00:12:00,4.6,北,10.3,北,7.7,91.7,1,5.5,1,24.5,0,0,986.1,1000.1
14,2020-04-13T00:13:00,4.5,北,10.3,北,7.7,91.9,1,5.5,1,24.5,0,0,986.1,1000.1
15,2020-04-13T00:14:00,4.5,北,10,北,7.7,91.5,1,5.5,1,24.5,0,0,986,1000
16,2020-04-13T00:15:00,4.8,北,11.8,北西,7.8,91.4,1,5.5,1,24.5,0,0,986,1000
17,2020-04-13T00:16:00,5,北,11.8,北西,7.9,91.4,1,6,1.5,25,0,0,985.9,999.9
18,2020-04-13T00:17:00,5.1,北北西,11.8,北西,7.9,90.9,1,6,1.5,25,0,0,985.9,999.9
19,2020-04-13T00:18:00,5.1,北北西,11.8,北西,7.9,90.5,1,6,1.5,25,0,0,985.9,999.9
20,2020-04-13T00:19:00,5,北北西,11.8,北西,8,90.3,1,5.5,1.5,25,0,0,986,1000
21,2020-04-13T00:20:00,5,北北西,11.8,北西,7.9,90.1,1,5.5,1.5,25,0,0,985.9,999.9
22,2020-04-13T00:21:00,5.1,北北西,11.8,北西,7.9,89.8,0.5,5.5,1.5,25,0,0,986,1000
23,2020-04-13T00:22:00,5,北北西,11.8,北西,7.9,89.8,0.5,5.5,1.5,25,0,0,986,1000
24,2020-04-13T00:23:00,5,北北西,11.8,北西,7.9,89.8,0.5,5.5,1.5,25,0,0,986,1000
25,2020-04-13T00:24:00,5,北北西,11.8,北西,7.9,90,1,5.5,2,25.5,0,0,985.8,999.8
26,2020-04-13T00:25:00,4.6,北北西,11.8,北西,8,90.2,1,5.5,2,25.5,0,0,985.8,999.8
27,2020-04-13T00:26:00,4.5,北北西,11.8,北西,8,90.2,0.5,5.5,2,25.5,0,0,985.9,999.9
28,2020-04-13T00:27:00,4.3,北北西,11.8,北西,8,90.1,0.5,5.5,2,25.5,0,0,985.9,999.9
29,2020-04-13T00:28:00,4.1,北北西,9.5,北,7.9,89.8,0.5,5.5,2,25.5,0,0,985.9,999.9
30,2020-04-13T00:29:00,4,北北西,9.5,北,7.9,89.7,0.5,5.5,2,25.5,0,0,986,1000
31,2020-04-13T00:30:00,3.8,北北西,9.5,北,7.9,89.9,0.5,5.5,2,25.5,0,0,986,1000
32,2020-04-13T00:31:00,3.6,北北西,9.5,北,7.9,89.9,1,5.5,2.5,26,0,0,986,1000
33,2020-04-13T00:32:00,3.7,北,9.5,北,7.9,90.1,1,5.5,2.5,26,0,0,986,1000
34,2020-04-13T00:33:00,3.8,北,9.5,北,7.9,90.1,1,5.5,2.5,26,0,0,986,1000
35,2020-04-13T00:34:00,3.6,北,9.3,北北東,7.8,90.3,0.5,5.5,2.5,26,0,0,985.9,999.9
36,2020-04-13T00:35:00,3.7,北,9.3,北北東,7.8,90.6,0.5,5.5,2.5,26,0,0,985.9,999.9
37,2020-04-13T00:36:00,3.6,北,9.3,北北東,7.8,90.9,0.5,5.5,2.5,26,0,0,985.9,999.9
38,2020-04-13T00:37:00,3.7,北,8.5,北北東,7.9,91.1,1,6,3,26.5,0,0,985.8,999.8
39,2020-04-13T00:38:00,3.7,北,8.6,北,8,91.4,1,5.5,3,26.5,0,0,985.8,999.8
40,2020-04-13T00:39:00,3.7,北,8.6,北,8,91.3,1,5.5,3,26.5,0,0,985.7,999.7
41,2020-04-13T00:40:00,3.6,北,8.6,北,8,91,1,5.5,3,26.5,0,0,985.8,999.8
42,2020-04-13T00:41:00,3.6,北,8.6,北,8,90.9,0.5,5.5,3,26.5,0,0,985.7,999.7
43,2020-04-13T00:42:00,3.5,北,8.6,北,8,90.8,0.5,5.5,3,26.5,0,0,985.6,999.6
44,2020-04-13T00:43:00,3.4,北北西,8.6,北,8,90.8,0.5,5,3,26.5,0,0,985.5,999.5
45,2020-04-13T00:44:00,3.4,北北西,8.6,北,8,90.8,1,5.5,3.5,27,0,0,985.4,999.4
46,2020-04-13T00:45:00,3.6,北北西,10.4,北,8,91,1,5.5,3.5,27,0,0,985.4,999.4
47,2020-04-13T00:46:00,3.7,北北西,10.4,北,8.1,90.9,1,5,3.5,27,0,0,985.4,999.4
48,2020-04-13T00:47:00,3.7,北北西,10.4,北,8,90.7,0.5,5,3.5,27,0,0,985.4,999.4
49,2020-04-13T00:48:00,3.7,北北西,10.4,北,8.1,90.7,0.5,5,3.5,27,0,0,985.4,999.4
50,2020-04-13T00:49:00,3.9,北北西,10.4,北,8,90.5,0.5,5,3.5,27,0,0,985.4,999.4
51,2020-04-13T00:50:00,4.4,北北西,10.4,北,8,90.4,0.5,5,3.5,27,0,0,985.5,999.5
52,2020-04-13T00:51:00,4.7,北北西,10.4,北,8.1,90.5,0.5,4.5,3.5,27,0,0,985.5,999.5
53,2020-04-13T00:52:00,4.8,北北西,10.4,北,8,90.5,0.5,4.5,3.5,27,0,0,985.5,999.5
54,2020-04-13T00:53:00,4.9,北北西,10.4,北,8.1,90.4,0.5,4.5,3.5,27,0,0,985.5,999.5
55,2020-04-13T00:54:00,5,北北西,10.4,北,8.1,90.5,0.5,5,4,27.5,0,0,985.4,999.4
56,2020-04-13T00:55:00,5,北北西,9.9,北西,8.1,90.6,0.5,4.5,4,27.5,0,0,985.4,999.4
57,2020-04-13T00:56:00,5,北北西,9.9,北西,8.2,90.5,0.5,4.5,4,27.5,0,0,985.4,999.3
58,2020-04-13T00:57:00,5.1,北北西,9.9,北西,8.2,90.3,0.5,4.5,4,27.5,0,0,985.4,999.3
59,2020-04-13T00:58:00,5.2,北北西,9.9,北西,8.2,90.1,0.5,4.5,4,27.5,0,0,985.3,999.2
60,2020-04-13T00:59:00,5.2,北北西,9.9,北西,8.2,90,0.5,4,4,27.5,0,0,985.2,999.1
61,2020-04-13T01:00:00,4.9,北北西,9.7,北北東,8.2,89.7,0.5,4,4,27.5,0,0,985.1,999
62,2020-04-13T01:01:00,4.9,北北西,9.7,北北東,8.2,89.7,1,4.5,4.5,28,0,0,985.1,999
63,2020-04-13T01:02:00,4.8,北北西,9.7,北北東,8.3,89.7,1,4.5,4.5,28,0,0,985.2,999.1
64,2020-04-13T01:03:00,4.7,北北西,9.7,北北東,8.3,89.7,1,4.5,4.5,28,0,0,985.2,999.1
65,2020-04-13T01:04:00,4.6,北北西,9.6,北西,8.3,89.8,0.5,4.5,4.5,28,0,0,985,998.9
66,2020-04-13T01:05:00,4.5,北北西,9.6,北西,8.2,89.7,0.5,4.5,4.5,28,0,0,985.1,999
67,2020-04-13T01:06:00,4.6,北北西,10.4,北,8.2,89.5,1,4.5,5,28.5,0,0,985.1,999
68,2020-04-13T01:07:00,4.5,北北西,10.4,北,8.2,89.6,1,4.5,5,28.5,0,0,985.1,999
69,2020-04-13T01:08:00,4.4,北北西,10.4,北,8.2,89.6,1,4.5,5,28.5,0,0,985,998.9
70,2020-04-13T01:09:00,4.6,北北西,10.4,北,8.2,89.7,1,4.5,5,28.5,0,0,985,998.9
71,2020-04-13T01:10:00,4.6,北北西,10.4,北,8.2,89.6,1,4.5,5,28.5,0,0,985,998.9
72,2020-04-13T01:11:00,4.5,北北西,10.4,北,8.2,89.6,1,4.5,5.5,29,0,0,985,998.9
73,2020-04-13T01:12:00,4.6,北北西,10.4,北,8.2,89.6,1,4.5,5.5,29,0,0,985,998.9
74,2020-04-13T01:13:00,4.8,北北西,10.4,北,8.2,89.6,1,4.5,5.5,29,0,0,985.1,999
75,2020-04-13T01:14:00,4.8,北北西,10.4,北,8.1,89.8,1,4.5,5.5,29,0,0,985,998.9
76,2020-04-13T01:15:00,4.9,北北西,10.4,北,8.2,90,1,4.5,5.5,29,0,0,985,998.9
77,2020-04-13T01:16:00,4.8,北北西,9.8,北西,8.2,90,0.5,4,5.5,29,0,0,985.2,999.1
78,2020-04-13T01:17:00,4.9,北北西,9.8,北西,8.2,90,0.5,4,5.5,29,0,0,985.2,999.1
79,2020-04-13T01:18:00,4.8,北北西,9.8,北西,8.2,90.1,1,4.5,6,29.5,0,0,985.2,999.1
80,2020-04-13T01:19:00,4.4,北北西,8.4,北西,8.2,90,1,4.5,6,29.5,0,0,985.1,999
81,2020-04-13T01:20:00,4.4,北北西,8.4,北西,8.2,89.9,1,4.5,6,29.5,0,0,985.1,999
82,2020-04-13T01:21:00,4.2,北北西,8.4,北西,8.2,89.7,0.5,4.5,6,29.5,0,0,985,998.9
83,2020-04-13T01:22:00,4.2,北北西,8.4,北西,8.2,89.7,0.5,4.5,6,29.5,0,0,985,998.9
84,2020-04-13T01:23:00,4,北北西,8.4,北西,8.2,89.9,1,5,6.5,30,0,0,985.1,999
85,2020-04-13T01:24:00,3.9,北北西,8.4,北西,8.2,89.9,1,4.5,6.5,30,0,0,985,998.9
86,2020-04-13T01:25:00,3.9,北北西,8.4,北西,8.2,90.1,1,4.5,6.5,30,0,0,985,998.9
87,2020-04-13T01:26:00,3.8,北北西,8.4,北西,8.2,90.3,1,4.5,6.5,30,0,0,984.9,998.8
88,2020-04-13T01:27:00,3.7,北北西,8,北西,8.2,90.2,1.5,5,7,30.5,0,0,984.8,998.7
89,2020-04-13T01:28:00,3.7,北北西,9.6,北北東,8.3,90.2,1,5,7,30.5,0,0,984.8,998.7
90,2020-04-13T01:29:00,4,北北西,9.8,北,8.3,90.1,1,5,7,30.5,0,0,984.8,998.7
91,2020-04-13T01:30:00,4,北北西,9.8,北,8.3,90,1,5,7,30.5,0,0,984.8,998.7
92,2020-04-13T01:31:00,4.2,北北西,9.8,北,8.2,89.8,1.5,5,7.5,31,0,0,984.8,998.7
93,2020-04-13T01:32:00,4.3,北北西,9.8,北,8.2,89.7,1.5,5,7.5,31,0,0,984.8,998.7
94,2020-04-13T01:33:00,4.2,北北西,9.8,北,8.2,89.7,1,5,7.5,31,0,0,984.8,998.7
95,2020-04-13T01:34:00,4.3,北北西,9.8,北,8.2,89.9,1.5,5.5,8,31.5,0,0,984.8,998.7
96,2020-04-13T01:35:00,4.2,北北西,9.8,北,8.2,90.1,1.5,5.5,8,31.5,0,0,984.8,998.7
97,2020-04-13T01:36:00,4.3,北北西,9.8,北,8.2,90.3,1.5,5.5,8,31.5,0,0,984.8,998.7
98,2020-04-13T01:37:00,4.2,北北西,9.8,北,8.1,90.4,1,5,8,31.5,0,0,984.8,998.7
99,2020-04-13T01:38:00,4.4,北北西,11,北西,8.2,90.5,1.5,5.5,8.5,32,0,0,984.7,998.6
100,2020-04-13T01:39:00,4.5,北北西,11,北西,8.2,90.6,1.5,5.5,8.5,32,0,0,984.8,998.7
101,2020-04-13T01:40:00,4.6,北北西,11,北西,8.2,90.6,1.5,5.5,8.5,32,0,0,984.8,998.7
102,2020-04-13T01:41:00,4.3,北北西,11,北西,8.2,90.6,1,5.5,8.5,32,0,0,984.9,998.8
103,2020-04-13T01:42:00,4.3,北北西,11,北西,8.2,90.3,1.5,6,9,32.5,0,0,984.8,998.7
104,2020-04-13T01:43:00,4.6,北北西,11,北西,8.2,90.2,1.5,6,9,32.5,0,0,984.8,998.7
105,2020-04-13T01:44:00,4.7,北北西,11,北西,8.2,90.2,1,5.5,9,32.5,0,0,984.8,998.7
106,2020-04-13T01:45:00,4.8,北北西,11,北西,8.2,90,1,5.5,9,32.5,0,0,984.7,998.6
107,2020-04-13T01:46:00,4.8,北北西,11,北西,8.2,90,1,5.5,9,32.5,0,0,984.7,998.6
108,2020-04-13T01:47:00,4.8,北北西,11,北西,8.3,90.2,1.5,6,9.5,33,0,0,984.7,998.6
109,2020-04-13T01:48:00,4.8,北北西,10.3,西,8.2,90.2,1,6,9.5,33,0,0,984.7,998.6
110,2020-04-13T01:49:00,4.7,北北西,10.3,西,8.3,90.1,1,6,9.5,33,0,0,984.7,998.6
111,2020-04-13T01:50:00,4.5,北北西,10.3,西,8.3,90.2,1,6,9.5,33,0,0,984.8,998.7
112,2020-04-13T01:51:00,4.4,北北西,10.3,西,8.3,90,1.5,6.5,10,33.5,0,0,984.8,998.7
113,2020-04-13T01:52:00,4.3,北北西,10.3,西,8.3,90,1,6.5,10,33.5,0,0,984.8,998.7
114,2020-04-13T01:53:00,4.2,北北西,9.7,北北西,8.3,89.9,1,6.5,10,33.5,0,0,984.5,998.4
115,2020-04-13T01:54:00,4.3,北北西,9.7,北北西,8.3,89.9,1,6,10,33.5,0,0,984.5,998.4
116,2020-04-13T01:55:00,4.4,北北西,10.4,北,8.3,90,1,6,10,33.5,0,0,984.4,998.3
117,2020-04-13T01:56:00,4.4,北北西,10.4,北,8.3,90,1.5,6.5,10.5,34,0,0,984.3,998.2
118,2020-04-13T01:57:00,4.5,北北西,10.4,北,8.4,89.8,1,6.5,10.5,34,0,0,984.2,998.1
119,2020-04-13T01:58:00,4.5,北北西,10.4,北,8.4,89.8,1,6.5,10.5,34,0,0,984.2,998.1
120,2020-04-13T01:59:00,4.6,北北西,11.4,北,8.4,89.7,1.5,7,11,34.5,0,0,984.2,998.1
121,2020-04-13T02:00:00,4.8,北北西,11.4,北,8.3,89.6,1.5,7,11,34.5,0,0,984.1,998
122,2020-04-13T02:01:00,5.2,北北西,11.4,北,8.4,89.6,1,6.5,11,34.5,0,0,984,997.9
123,2020-04-13T02:02:00,5.5,北北西,11.4,北,8.3,89.5,1,6.5,11,34.5,0,0,984,997.9
124,2020-04-13T02:03:00,5.5,北北西,11.4,北,8.3,89.3,1,6.5,11,34.5,0,0,984,997.9
125,2020-04-13T02:04:00,5.5,北北西,11.4,北,8.3,89.5,1.5,7,11.5,35,0,0,984,997.9
126,2020-04-13T02:05:00,5.5,北北西,11.4,北,8.3,89.7,1.5,7,11.5,35,0,0,984,997.9
127,2020-04-13T02:06:00,5.6,北北西,11.4,北,8.3,89.6,1,6.5,11.5,35,0,0,984,997.9
128,2020-04-13T02:07:00,5.5,北北西,11.9,北,8.3,89.6,1,6.5,11.5,35,0,0,984,997.9
129,2020-04-13T02:08:00,5.6,北北西,11.9,北,8.3,89.7,1,6.5,11.5,35,0,0,984,997.9
130,2020-04-13T02:09:00,5.8,北北西,13.6,北北東,8.4,89.9,0.5,6.5,11.5,35,0,0,984,997.9
131,2020-04-13T02:10:00,6.2,北北西,14.1,北,8.5,90.1,0.5,6.5,11.5,35,0,0,984.1,998
132,2020-04-13T02:11:00,6.1,北北西,14.1,北,8.5,89.8,1,6.5,12,35.5,0,0,984,997.9
133,2020-04-13T02:12:00,5.8,北,14.1,北,8.4,89.3,1,6.5,12,35.5,0,0,984,997.9
134,2020-04-13T02:13:00,5.9,北,14.1,北,8.4,89.3,1,6.5,12,35.5,0,0,983.8,997.7
135,2020-04-13T02:14:00,6,北,14.1,北,8.5,89.5,0.5,6.5,12,35.5,0,0,983.7,997.6
136,2020-04-13T02:15:00,5.9,北,14.1,北,8.5,89.8,0.5,6.5,12,35.5,0,0,983.6,997.5
137,2020-04-13T02:16:00,6.2,北,14.3,北西,8.5,89.6,0.5,6.5,12,35.5,0,0,983.4,997.3
138,2020-04-13T02:17:00,6.3,北,14.3,北西,8.6,89.4,1,7,12.5,36,0,0,983.4,997.3
139,2020-04-13T02:18:00,6.4,北,14.3,北西,8.6,89.3,1,6.5,12.5,36,0,0,983.5,997.4
140,2020-04-13T02:19:00,6.1,北,14.3,北西,8.6,89.1,1,6.5,12.5,36,0,0,983.4,997.3
141,2020-04-13T02:20:00,5.8,北,14.3,北西,8.6,89.1,1,6.5,12.5,36,0,0,983.3,997.2
142,2020-04-13T02:21:00,5.9,北,14.3,北西,8.6,89.3,0.5,6.5,12.5,36,0,0,983.3,997.2
143,2020-04-13T02:22:00,6.4,北,14.4,北北東,8.7,89.3,0.5,6.5,12.5,36,0,0,983.2,997.1
144,2020-04-13T02:23:00,6.3,北,14.4,北北東,8.6,89,1,6.5,13,36.5,0,0,983.3,997.2
145,2020-04-13T02:24:00,6.2,北,14.4,北北東,8.6,88.9,1,6.5,13,36.5,0,0,983.2,997.1
146,2020-04-13T02:25:00,6.3,北,14.4,北北東,8.5,89,1,6.5,13,36.5,0,0,983.2,997.1
147,2020-04-13T02:26:00,6.3,北,16.3,北,8.5,89.3,1,6.5,13,36.5,0,0,983.2,997.1
148,2020-04-13T02:27:00,6.6,北,16.3,北,8.6,89.6,0.5,6,13,36.5,0,0,983,996.9
149,2020-04-13T02:28:00,6.5,北,16.3,北,8.6,89.7,0.5,6,13,36.5,0,0,983.1,997
150,2020-04-13T02:29:00,6.4,北,16.3,北,8.5,89.4,1,6.5,13.5,37,0,0,983.1,997
151,2020-04-13T02:30:00,6.6,北,16.3,北,8.5,89.5,1,6.5,13.5,37,0,0,983,996.9
152,2020-04-13T02:31:00,6.8,北,16.3,北,8.6,89.7,1,6,13.5,37,0,0,983,996.9
153,2020-04-13T02:32:00,6.6,北,16.3,北,8.6,89.6,1,6,13.5,37,0,0,983.2,997.1
154,2020-04-13T02:33:00,7,北,16.3,北,8.6,89.3,0.5,6,13.5,37,0,0,983.1,997
155,2020-04-13T02:34:00,7.2,北,16.3,北,8.6,89.1,0.5,5.5,13.5,37,0,0,983.1,997
156,2020-04-13T02:35:00,7.1,北,16.3,北,8.5,89,1,6,14,37.5,0,0,983,996.9
157,2020-04-13T02:36:00,7.1,北,14.4,北北東,8.5,89.3,1,6,14,37.5,0,0,983.1,997
158,2020-04-13T02:37:00,6.6,北,14.4,北北東,8.6,89.6,1,6,14,37.5,0,0,983.1,997
159,2020-04-13T02:38:00,7,北,15.6,北北東,8.6,89.5,1.5,6,14.5,38,0,0,982.9,996.8
160,2020-04-13T02:39:00,7.2,北,15.6,北北東,8.6,89.3,1,6,14.5,38,0,0,983,996.9
161,2020-04-13T02:40:00,7.4,北,15.6,北北東,8.6,89.1,1.5,6.5,15,38.5,0,0,983,996.9
162,2020-04-13T02:41:00,7.1,北,15.6,北北東,8.7,89.2,1.5,6.5,15,38.5,0,0,983,996.9
163,2020-04-13T02:42:00,7,北,15.6,北北東,8.6,88.8,1.5,6,15,38.5,0,0,982.9,996.8
164,2020-04-13T02:43:00,6.8,北北西,15.6,北北東,8.6,88.7,1.5,6,15,38.5,0,0,982.8,996.7
165,2020-04-13T02:44:00,6.8,北北西,15.6,北北東,8.6,88.7,1.5,6,15,38.5,0,0,982.8,996.7
166,2020-04-13T02:45:00,7,北北西,15.6,北北東,8.6,88.7,1.5,6.5,15.5,39,0,0,982.8,996.7
167,2020-04-13T02:46:00,6.8,北北西,15.6,北北東,8.6,88.6,1.5,6.5,15.5,39,0,0,982.7,996.6
168,2020-04-13T02:47:00,6.7,北北西,15.6,北北東,8.6,88.6,1.5,6,15.5,39,0,0,982.8,996.7
169,2020-04-13T02:48:00,6.4,北北西,14.5,北,8.6,88.6,1,6,15.5,39,0,0,982.5,996.4
170,2020-04-13T02:49:00,6.3,北,14.5,北,8.6,88.8,1,6,15.5,39,0,0,982.7,996.6
171,2020-04-13T02:50:00,6.1,北,14.5,北,8.5,88.8,1,6.5,16,39.5,0,0,982.7,996.6
172,2020-04-13T02:51:00,6,北,14.5,北,8.5,89,1,6,16,39.5,0,0,982.7,996.6
173,2020-04-13T02:52:00,5.9,北,14.5,北,8.4,89.3,1,6,16,39.5,0,0,982.7,996.6
174,2020-04-13T02:53:00,6,北,14.5,北,8.5,89.6,1.5,6.5,16.5,40,0,0,982.6,996.5
175,2020-04-13T02:54:00,6.2,北,14.5,北,8.6,89.9,1.5,6.5,16.5,40,0,0,982.7,996.6
176,2020-04-13T02:55:00,6.1,北,13.8,北,8.6,89.8,1.5,7,17,40.5,0,0,982.8,996.7
177,2020-04-13T02:56:00,6.2,北,13.8,北,8.6,89.4,1.5,6.5,17,40.5,0,0,982.9,996.8
178,2020-04-13T02:57:00,6.5,北,13.8,北,8.6,89.5,1.5,6.5,17,40.5,0,0,982.8,996.7
179,2020-04-13T02:58:00,6.2,北,13.8,北,8.5,89.6,2,7,17.5,41,0,0,982.8,996.7
180,2020-04-13T02:59:00,6.2,北,13.6,北,8.6,89.8,2,6.5,17.5,41,0,0,982.8,996.7
181,2020-04-13T03:00:00,6,北,13.6,北,8.6,89.8,1.5,6.5,17.5,41,0,0,982.8,996.7
182,2020-04-13T03:01:00,6.1,北,13.6,北,8.6,89.6,1.5,6.5,17.5,41,0,0,982.8,996.7
183,2020-04-13T03:02:00,6,北,13.6,北,8.6,89.4,2,7,18,41.5,0,0,982.8,996.7
184,2020-04-13T03:03:00,6,北,15,北,8.6,89.3,1.5,7,18,41.5,0,0,982.6,996.5
185,2020-04-13T03:04:00,5.8,北,15,北,8.6,89.3,1.5,6.5,18,41.5,0,0,982.6,996.5
186,2020-04-13T03:05:00,5.7,北北西,15,北,8.6,89.4,1,6.5,18,41.5,0,0,982.5,996.4
187,2020-04-13T03:06:00,5.6,北北西,15,北,8.6,89.4,1,6.5,18,41.5,0,0,982.6,996.5
188,2020-04-13T03:07:00,5.5,北北西,15,北,8.6,89.4,1.5,7,18.5,42,0,0,982.5,996.4
189,2020-04-13T03:08:00,5.8,北北西,15,北,8.6,89.3,1,7,18.5,42,0,0,982.3,996.2
190,2020-04-13T03:09:00,5.7,北北西,15,北,8.6,89.3,1,7,18.5,42,0,0,982.2,996.1
191,2020-04-13T03:10:00,5.9,北北西,15,北,8.6,89.1,1,7,18.5,42,0,0,981.9,995.8
192,2020-04-13T03:11:00,5.9,北北西,15,北,8.6,89,1.5,7,19,42.5,0,0,981.9,995.8
193,2020-04-13T03:12:00,6.1,北北西,15,北,8.6,88.9,1,7,19,42.5,0,0,981.9,995.8
194,2020-04-13T03:13:00,6.1,北北西,14.9,北北東,8.6,89,1,7,19,42.5,0,0,981.8,995.7
195,2020-04-13T03:14:00,6.1,北北西,14.9,北北東,8.6,89.1,1,7,19,42.5,0,0,981.8,995.7
196,2020-04-13T03:15:00,6.3,北北西,14.9,北北東,8.6,89.1,1,7,19,42.5,0,0,981.8,995.7
197,2020-04-13T03:16:00,6.4,北北西,14.9,北北東,8.6,89,1.5,7.5,19.5,43,0,0,981.7,995.6
198,2020-04-13T03:17:00,6.6,北北西,14.9,北北東,8.6,88.7,1,7,19.5,43,0,0,981.6,995.5
199,2020-04-13T03:18:00,6.5,北北西,14.9,北北東,8.7,88.5,1,7,19.5,43,0,0,981.7,995.6
200,2020-04-13T03:19:00,6.5,北北西,14.9,北北東,8.6,88.2,1,7,19.5,43,0,0,981.6,995.5
201,2020-04-13T03:20:00,6.7,北北西,14.9,北北東,8.6,88.1,1,7,19.5,43,0,0,981.6,995.5
202,2020-04-13T03:21:00,6.9,北,14.9,北北東,8.7,88.1,0.5,7,19.5,43,0,0,981.6,995.5
203,2020-04-13T03:22:00,7,北北西,14.9,北北東,8.6,88.1,1,7.5,20,43.5,0,0,981.7,995.6
204,2020-04-13T03:23:00,6.9,北北西,15.4,北北東,8.6,88.2,1,7,20,43.5,0,0,981.8,995.7
205,2020-04-13T03:24:00,7.1,北北西,15.4,北北東,8.6,88.4,1,7,20,43.5,0,0,981.9,995.8
206,2020-04-13T03:25:00,7.1,北北西,15.4,北北東,8.6,88.3,1,7,20,43.5,0,0,981.7,995.6
207,2020-04-13T03:26:00,7.1,北北西,15.4,北北東,8.6,88.2,0.5,7,20,43.5,0,0,981.8,995.7
208,2020-04-13T03:27:00,7,北,15.9,北北東,8.6,88.2,0.5,7,20,43.5,0,0,981.7,995.6
209,2020-04-13T03:28:00,7.1,北北西,15.9,北北東,8.6,88.1,0.5,7,20,43.5,0,0,981.7,995.6
210,2020-04-13T03:29:00,7.3,北北西,15.9,北北東,8.6,88,0.5,6.5,20,43.5,0,0,981.7,995.6
211,2020-04-13T03:30:00,7,北北西,15.9,北北東,8.7,87.9,1,7,20.5,44,0,0,981.8,995.7
212,2020-04-13T03:31:00,6.9,北北西,15.9,北北東,8.6,87.8,1,7,20.5,44,0,0,981.7,995.6
213,2020-04-13T03:32:00,6.9,北北西,15.9,北北東,8.7,87.8,0.5,7,20.5,44,0,0,981.9,995.8
214,2020-04-13T03:33:00,7.1,北北西,15.9,北北東,8.7,87.5,0.5,7,20.5,44,0,0,981.9,995.8
215,2020-04-13T03:34:00,7,北北西,15.9,北北東,8.7,87.2,0.5,7,20.5,44,0,0,981.9,995.8
216,2020-04-13T03:35:00,6.9,北北西,15.9,北北東,8.7,86.9,0.5,6.5,20.5,44,0,0,981.9,995.8
217,2020-04-13T03:36:00,6.5,北北西,15.9,北北東,8.7,86.9,0.5,6.5,20.5,44,0,0,981.8,995.7
218,2020-04-13T03:37:00,6.5,北北西,15.3,北西,8.6,87.1,1,7,21,44.5,0,0,981.8,995.7
219,2020-04-13T03:38:00,6.7,北,15.3,北西,8.6,87.3,1,6.5,21,44.5,0,0,981.8,995.7
220,2020-04-13T03:39:00,6.5,北,15.3,北西,8.6,87.5,1,6.5,21,44.5,0,0,981.7,995.6
221,2020-04-13T03:40:00,6.7,北,15.3,北西,8.6,87.7,0.5,6,21,44.5,0,0,981.7,995.6
222,2020-04-13T03:41:00,6.7,北,15.3,北西,8.6,87.9,1,6.5,21.5,45,0,0,981.6,995.5
223,2020-04-13T03:42:00,6.6,北,14,北西,8.6,88.1,1,6.5,21.5,45,0,0,981.7,995.6
224,2020-04-13T03:43:00,6.5,北,14,北西,8.6,87.8,1,6.5,21.5,45,0,0,981.7,995.6
225,2020-04-13T03:44:00,6.4,北,14,北西,8.6,87.6,1,6.5,21.5,45,0,0,981.8,995.7
226,2020-04-13T03:45:00,6.4,北,14,北西,8.6,87.5,1,6,21.5,45,0,0,981.8,995.7
227,2020-04-13T03:46:00,6.6,北,14,北西,8.6,87.7,1,6,21.5,45,0,0,981.9,995.8
228,2020-04-13T03:47:00,6.4,北,14,北西,8.6,87.7,1,6.5,22,45.5,0,0,981.9,995.8
229,2020-04-13T03:48:00,6.5,北,15.9,北北東,8.6,87.9,1,6.5,22,45.5,0,0,981.8,995.7
230,2020-04-13T03:49:00,6.3,北,15.9,北北東,8.5,88,1,6.5,22,45.5,0,0,981.9,995.8
231,2020-04-13T03:50:00,6,北,15.9,北北東,8.5,88,1,6,22,45.5,0,0,981.9,995.8
232,2020-04-13T03:51:00,5.8,北,15.9,北北東,8.5,88.3,0.5,6,22,45.5,0,0,982,995.9
233,2020-04-13T03:52:00,5.7,北,15.9,北北東,8.5,88.6,0.5,6,22,45.5,0,0,981.8,995.7
234,2020-04-13T03:53:00,5.4,北,15.9,北北東,8.6,88.5,0.5,5.5,22,45.5,0,0,981.9,995.8
235,2020-04-13T03:54:00,5.4,北,15.9,北北東,8.6,88,1,6,22.5,46,0,0,982,995.9
236,2020-04-13T03:55:00,5.3,北,15.9,北北東,8.5,87.8,1,5.5,22.5,46,0,0,982,995.9
237,2020-04-13T03:56:00,5,北,15.9,北北東,8.5,87.9,1,5.5,22.5,46,0,0,982.1,996
238,2020-04-13T03:57:00,4.7,北,15.9,北北東,8.4,88.2,0.5,5.5,22.5,46,0,0,982.1,996
239,2020-04-13T03:58:00,4.2,北,11.6,北,8.4,88.5,0.5,5,22.5,46,0,0,982.1,996
240,2020-04-13T03:59:00,4.1,北,11.6,北,8.3,88.9,0.5,5,22.5,46,0,0,982.2,996.1
241,2020-04-13T04:00:00,4.2,北北西,11.6,北,8.3,89.1,1,5.5,23,46.5,0,0,982.1,996
242,2020-04-13T04:01:00,4.2,北北西,11.6,北,8.3,89.3,1,5.5,23,46.5,0,0,982.2,996.1
243,2020-04-13T04:02:00,4,北北西,9,北,8.3,89.3,1,5,23,46.5,0,0,982.2,996.1
244,2020-04-13T04:03:00,4,北北西,9,北,8.4,89.5,1,5,23,46.5,0,0,982.3,996.2
245,2020-04-13T04:04:00,4,北北西,8.7,北,8.4,89.6,1,5.5,23.5,47,0,0,982.3,996.2
246,2020-04-13T04:05:00,3.9,北北西,9.9,北,8.4,89.6,1,5.5,23.5,47,0,0,982.2,996.1
247,2020-04-13T04:06:00,4.1,北北西,9.9,北,8.4,89.3,1,5.5,23.5,47,0,0,982.3,996.2
248,2020-04-13T04:07:00,4.3,北北西,10.3,北北東,8.5,89.3,1,5,23.5,47,0,0,982.4,996.3
249,2020-04-13T04:08:00,4.2,北北西,10.3,北北東,8.4,89,1,5,23.5,47,0,0,982.4,996.3
250,2020-04-13T04:09:00,4.4,北北西,10.3,北北東,8.4,88.9,1.5,5.5,24,47.5,0,0,982.5,996.4
251,2020-04-13T04:10:00,4.6,北北西,10.3,北北東,8.4,88.8,1,5.5,24,47.5,0,0,982.4,996.3
252,2020-04-13T04:11:00,4.8,北北西,10.3,北北東,8.4,88.7,1,5,24,47.5,0,0,982.5,996.4
253,2020-04-13T04:12:00,5,北北西,10.3,北北東,8.4,88.3,1,5,24,47.5,0,0,982.5,996.4
254,2020-04-13T04:13:00,5.3,北北西,10.3,北北東,8.4,88.2,1,5,24,47.5,0,0,982.2,996.1
255,2020-04-13T04:14:00,5.5,北北西,10.3,北北東,8.4,88,0.5,5,24,47.5,0,0,982.1,996
256,2020-04-13T04:15:00,5.6,北西,10.3,北北東,8.4,87.8,1,5.5,24.5,48,0,0,982,995.9
257,2020-04-13T04:16:00,5.6,北西,10.3,北北東,8.3,87.8,1,5,24.5,48,0,0,981.9,995.8
258,2020-04-13T04:17:00,5.6,北西,10.1,北西,8.3,87.9,1,5,24.5,48,0,0,981.8,995.7
259,2020-04-13T04:18:00,5.7,北北西,10.6,北北東,8.3,88.2,1,5,24.5,48,0,0,981.6,995.5
260,2020-04-13T04:19:00,5.7,北北西,10.6,北北東,8.3,88.4,0.5,5,24.5,48,0,0,981.5,995.4
261,2020-04-13T04:20:00,5.4,北北西,10.6,北北東,8.2,88.4,1,5.5,25,48.5,0,0,981.4,995.3
262,2020-04-13T04:21:00,5.1,北北西,10.6,北北東,8.3,88.6,1,5.5,25,48.5,0,0,981.3,995.2
263,2020-04-13T04:22:00,5,北北西,10.6,北北東,8.3,88.7,1,5,25,48.5,0,0,981.2,995.1
264,2020-04-13T04:23:00,5,北北西,10.8,北西,8.3,88.5,1,5,25,48.5,0,0,981.1,995
265,2020-04-13T04:24:00,4.8,北北西,11.1,北北東,8.2,88.3,1,5,25,48.5,0,0,981.1,995
266,2020-04-13T04:25:00,4.8,北北西,11.1,北北東,8.2,88.1,1,5.5,25.5,49,0,0,981.1,995
267,2020-04-13T04:26:00,4.7,北北西,11.1,北北東,8.2,88.3,1,5.5,25.5,49,0,0,981,994.9
268,2020-04-13T04:27:00,4.8,北北西,11.1,北北東,8.2,88.7,1,5.5,25.5,49,0,0,981,994.9
269,2020-04-13T04:28:00,4.8,北北西,11.1,北北東,8.2,88.8,1,5.5,25.5,49,0,0,981.1,995
270,2020-04-13T04:29:00,4.8,北北西,11.1,北北東,8.2,88.8,1.5,6,26,49.5,0,0,981.2,995.1
271,2020-04-13T04:30:00,4.9,北北西,11.1,北北東,8.2,88.8,1,5.5,26,49.5,0,0,981.3,995.2
272,2020-04-13T04:31:00,5,北北西,11.1,北北東,8.2,88.9,1,5.5,26,49.5,0,0,981.3,995.2
273,2020-04-13T04:32:00,5,北北西,11.1,北北東,8.1,88.7,1,5.5,26,49.5,0,0,981.3,995.2
274,2020-04-13T04:33:00,4.8,北北西,11.1,北北東,8.2,88.9,1,5.5,26,49.5,0,0,981.4,995.3
275,2020-04-13T04:34:00,4.7,北北西,10.9,北西,8.1,88.9,1,5.5,26,49.5,0,0,981.5,995.4
276,2020-04-13T04:35:00,4.6,北北西,10.9,北西,8.1,88.9,1,6,26.5,50,0,0,981.5,995.4
277,2020-04-13T04:36:00,4.7,北北西,10.4,北,8.1,89.1,1,6,26.5,50,0,0,981.5,995.4
278,2020-04-13T04:37:00,4.6,北北西,10.4,北,8.1,89.2,1,5.5,26.5,50,0,0,981.4,995.3
279,2020-04-13T04:38:00,4.6,北北西,10.4,北,8.1,89.3,1,5.5,26.5,50,0,0,981.3,995.2
280,2020-04-13T04:39:00,4.6,北北西,10.4,北,8.1,89.4,0.5,5.5,26.5,50,0,0,981.4,995.3
281,2020-04-13T04:40:00,4.5,北北西,10.4,北,8.2,89.4,0.5,5.5,26.5,50,0,0,981.4,995.3
282,2020-04-13T04:41:00,4.5,北北西,10.4,北,8.2,89.3,0.5,5,26.5,50,0,0,981.4,995.3
283,2020-04-13T04:42:00,4.4,北北西,9.5,北,8.1,89.1,1,5.5,27,50.5,0,0,981.4,995.3
284,2020-04-13T04:43:00,4.5,北北西,8.9,北西,8.1,89.1,1,5.5,27,50.5,0,0,981.5,995.4
285,2020-04-13T04:44:00,4.7,北北西,8.9,北西,8.2,89.2,1,5.5,27,50.5,0,0,981.4,995.3
286,2020-04-13T04:45:00,4.8,北北西,8.9,北西,8.2,89,0.5,5.5,27,50.5,0,0,981.5,995.4
287,2020-04-13T04:46:00,4.6,北北西,8.9,北西,8.2,88.7,0.5,5.5,27,50.5,0,0,981.5,995.4
288,2020-04-13T04:47:00,4.6,北北西,8.9,北西,8.2,88.5,0.5,5,27,50.5,0,0,981.5,995.4
289,2020-04-13T04:48:00,4.5,北北西,8.9,北西,8.2,88.6,0.5,5,27,50.5,0,0,981.6,995.5
290,2020-04-13T04:49:00,4.6,北北西,8.9,北西,8.2,88.7,1,5.5,27.5,51,0,0,981.6,995.5
291,2020-04-13T04:50:00,4.9,北北西,9,北西,8.2,88.7,1,5.5,27.5,51,0,0,981.5,995.4
292,2020-04-13T04:51:00,5,北北西,9,北西,8.2,88.7,1,5.5,27.5,51,0,0,981.6,995.5
293,2020-04-13T04:52:00,5.1,北北西,9,北西,8.2,88.5,0.5,5.5,27.5,51,0,0,981.6,995.5
294,2020-04-13T04:53:00,5,北北西,9,北西,8.2,88.5,0.5,5.5,27.5,51,0,0,981.7,995.6
295,2020-04-13T04:54:00,4.7,北北西,9,北西,8.2,88.5,0.5,5,27.5,51,0,0,981.7,995.6
296,2020-04-13T04:55:00,4.8,北西,9,北西,8.2,88.3,0.5,5,27.5,51,0,0,981.7,995.6
297,2020-04-13T04:56:00,5.2,北西,11,西北西,8.2,88.1,0.5,5,27.5,51,0,0,981.6,995.5
298,2020-04-13T04:57:00,5.3,北西,11,西北西,8.3,87.9,0.5,5,27.5,51,0,0,981.7,995.6
299,2020-04-13T04:58:00,5.3,北北西,11,西北西,8.3,87.7,1,5.5,28,51.5,0,0,981.7,995.6
300,2020-04-13T04:59:00,5.3,北西,11,西北西,8.3,87.4,0.5,5.5,28,51.5,0,0,981.7,995.6
301,2020-04-13T05:00:00,5,北西,11,西北西,8.3,87.2,0.5,5,28,51.5,0,0,981.6,995.5
302,2020-04-13T05:01:00,4.9,北北西,11,西北西,8.3,87,0.5,5,28,51.5,0,0,981.5,995.4
303,2020-04-13T05:02:00,4.8,北北西,11,西北西,8.2,86.9,0.5,5,28,51.5,0,0,981.5,995.4
304,2020-04-13T05:03:00,4.9,北北西,11,西北西,8.2,86.9,0.5,5,28,51.5,0,0,981.5,995.4
305,2020-04-13T05:04:00,5,北北西,11,西北西,8.2,86.8,0.5,4.5,28,51.5,0,0,981.4,995.3
306,2020-04-13T05:05:00,4.9,北北西,11,西北西,8.2,86.8,0.5,4.5,28,51.5,0,0,981.5,995.4
307,2020-04-13T05:06:00,4.7,北北西,9.5,西北西,8.2,86.9,1,5,28.5,52,0,0,981.4,995.3
308,2020-04-13T05:07:00,4.5,北北西,8.6,北西,8.2,87.1,1,5,28.5,52,0,0,981.4,995.3
309,2020-04-13T05:08:00,4.4,北北西,8.6,北西,8.2,87.1,0.5,5,28.5,52,0,0,981.3,995.2
310,2020-04-13T05:09:00,4.3,北北西,8.6,北西,8.1,86.9,0.5,4.5,28.5,52,0,0,981.3,995.2
311,2020-04-13T05:10:00,4.3,北北西,8.6,北西,8,87.2,0.5,4.5,28.5,52,0,0,981.2,995.1
312,2020-04-13T05:11:00,4.4,北北西,9.1,北北東,8,87.6,0.5,4.5,28.5,52,0,0,981.1,995
313,2020-04-13T05:12:00,4.4,北,9.1,北北東,8,87.8,1,5,29,52.5,0,0,981,994.9